When you browse on this site, cookies collect data to enhance your experience and personalize the content and advertising you see.
Visit our Privacy Policy to learn more. By continuing to use the site, you agree to this use of cookies and data.
  • In Lithuania
  • List of Countries
  • For 7 days
  • Water Temperature
  • Satellite Maps
  • Weather Map
  • Weather Widgets
  • user-avatar
    Login

    Hourly Weather Albany

    Today, 16 June, Sunday

    Time Temperature Precipitation Wind Pressure Humidity
    00:00 +9°C° 0 mm 5 mps 763 mmHg 87%
    01:00 +10°C° 0 mm 5 mps 763 mmHg 84%
    02:00 +11°C° 0 mm 4 mps 763 mmHg 81%
    03:00 +11°C° 0 mm 4 mps 762 mmHg 83%
    04:00 +10°C° 0 mm 4 mps 762 mmHg 86%
    05:00 +10°C° 0 mm 4 mps 762 mmHg 88%
    06:00 +10°C° 0 mm 4 mps 762 mmHg 88%
    07:00 +10°C° 0 mm 5 mps 762 mmHg 89%
    08:00 +10°C° 0 mm 5 mps 763 mmHg 88%
    09:00 +12°C° 0.2 mm 5 mps 763 mmHg 85%
    10:00 +13°C° 0.2 mm 5 mps 763 mmHg 83%
    11:00 +14°C° 0.2 mm 6 mps 763 mmHg 81%
    12:00 +15°C° 0.2 mm 6 mps 763 mmHg 76%
    13:00 +16°C° 0.2 mm 7 mps 762 mmHg 72%
    14:00 +16°C° 0.2 mm 7 mps 762 mmHg 68%
    15:00 +15°C° 0.3 mm 7 mps 762 mmHg 72%
    16:00 +15°C° 0.3 mm 7 mps 762 mmHg 76%
    17:00 +14°C° 0.3 mm 7 mps 763 mmHg 80%
    18:00 +12°C° 0.3 mm 7 mps 763 mmHg 83%
    19:00 +12°C° 0.3 mm 7 mps 764 mmHg 85%
    20:00 +11°C° 0.3 mm 7 mps 764 mmHg 87%
    21:00 +10°C° 0 mm 6 mps 765 mmHg 85%
    22:00 +10°C° 0 mm 6 mps 765 mmHg 83%
    23:00 +9°C° 0 mm 5 mps 766 mmHg 81%

    Tomorrow, 17 June, Monday

    Time Temperature Precipitation Wind Pressure Humidity
    00:00 +9°C° 0 mm 5 mps 766 mmHg 78%
    01:00 +9°C° 0 mm 5 mps 766 mmHg 76%
    02:00 +10°C° 0 mm 5 mps 766 mmHg 73%
    03:00 +10°C° 0 mm 5 mps 766 mmHg 72%
    04:00 +9°C° 0 mm 5 mps 767 mmHg 71%
    05:00 +10°C° 0 mm 4 mps 767 mmHg 70%
    06:00 +10°C° 0 mm 4 mps 768 mmHg 70%
    07:00 +10°C° 0 mm 4 mps 768 mmHg 70%
    08:00 +11°C° 0 mm 3 mps 768 mmHg 69%
    09:00 +11°C° 0 mm 3 mps 769 mmHg 67%
    10:00 +11°C° 0 mm 3 mps 769 mmHg 65%
    11:00 +13°C° 0 mm 2 mps 769 mmHg 64%
    12:00 +13°C° 0 mm 2 mps 769 mmHg 62%
    13:00 +13°C° 0 mm 2 mps 768 mmHg 60%
    14:00 +13°C° 0 mm 2 mps 768 mmHg 59%
    15:00 +12°C° 0 mm 1 mps 768 mmHg 60%
    16:00 +12°C° 0 mm 1 mps 769 mmHg 62%
    17:00 +11°C° 0 mm 1 mps 769 mmHg 63%
    18:00 +11°C° 0 mm 1 mps 769 mmHg 63%
    19:00 +11°C° 0 mm 1 mps 769 mmHg 64%
    20:00 +10°C° 0 mm 1 mps 768 mmHg 64%
    21:00 +10°C° 0 mm 1 mps 768 mmHg 67%
    22:00 +8°C° 0 mm 2 mps 768 mmHg 69%
    23:00 +7°C° 0 mm 2 mps 768 mmHg 72%

    Day after tomorrow, 18 June, Tuesday

    Time Temperature Precipitation Wind Pressure Humidity
    00:00 +7°C° 0 mm 2 mps 768 mmHg 74%
    01:00 +6°C° 0 mm 2 mps 768 mmHg 77%
    02:00 +6°C° 0 mm 2 mps 767 mmHg 79%
    03:00 +6°C° 0 mm 2 mps 767 mmHg 80%
    04:00 +5°C° 0 mm 2 mps 767 mmHg 81%
    05:00 +5°C° 0 mm 2 mps 767 mmHg 82%
    06:00 +4°C° 0 mm 3 mps 767 mmHg 82%
    07:00 +4°C° 0 mm 3 mps 767 mmHg 83%
    08:00 +5°C° 0 mm 3 mps 767 mmHg 83%
    09:00 +8°C° 0 mm 3 mps 767 mmHg 75%
    10:00 +10°C° 0 mm 3 mps 767 mmHg 68%
    11:00 +12°C° 0 mm 4 mps 767 mmHg 60%
    12:00 +12°C° 0 mm 4 mps 766 mmHg 58%
    13:00 +13°C° 0 mm 3 mps 765 mmHg 56%
    14:00 +14°C° 0 mm 3 mps 765 mmHg 53%
    15:00 +12°C° 0 mm 3 mps 765 mmHg 60%
    16:00 +12°C° 0 mm 2 mps 765 mmHg 66%
    17:00 +10°C° 0 mm 2 mps 765 mmHg 73%
    18:00 +9°C° 0 mm 2 mps 765 mmHg 75%
    19:00 +9°C° 0 mm 2 mps 765 mmHg 77%
    20:00 +9°C° 0 mm 2 mps 765 mmHg 78%
    21:00 +8°C° 0 mm 2 mps 765 mmHg 79%
    22:00 +8°C° 0 mm 2 mps 765 mmHg 79%
    23:00 +8°C° 0 mm 2 mps 765 mmHg 80%

    19 June, Wednesday

    Time Temperature Precipitation Wind Pressure Humidity
    00:00 +7°C° 0 mm 3 mps 765 mmHg 81%
    01:00 +7°C° 0 mm 3 mps 765 mmHg 82%
    02:00 +7°C° 0 mm 3 mps 765 mmHg 83%
    03:00 +7°C° 0 mm 3 mps 765 mmHg 84%
    04:00 +5°C° 0 mm 3 mps 765 mmHg 84%
    05:00 +6°C° 0 mm 2 mps 764 mmHg 85%
    06:00 +6°C° 0 mm 2 mps 765 mmHg 84%
    07:00 +6°C° 0 mm 2 mps 765 mmHg 84%
    08:00 +6°C° 0 mm 2 mps 765 mmHg 83%
    09:00 +9°C° 0 mm 2 mps 765 mmHg 75%
    10:00 +12°C° 0 mm 2 mps 765 mmHg 66%
    11:00 +14°C° 0 mm 2 mps 765 mmHg 58%
    12:00 +15°C° 0 mm 2 mps 765 mmHg 53%
    13:00 +15°C° 0 mm 2 mps 764 mmHg 51%
    14:00 +16°C° 0 mm 2 mps 764 mmHg 49%
    15:00 +15°C° 0 mm 2 mps 764 mmHg 54%
    16:00 +13°C° 0 mm 2 mps 764 mmHg 59%
    17:00 +11°C° 0 mm 3 mps 764 mmHg 64%
    18:00 +10°C° 0 mm 3 mps 764 mmHg 63%
    19:00 +9°C° 0 mm 3 mps 764 mmHg 63%
    20:00 +8°C° 0 mm 3 mps 764 mmHg 62%
    21:00 +8°C° 0 mm 3 mps 764 mmHg 65%
    22:00 +8°C° 0 mm 3 mps 764 mmHg 69%
    23:00 +7°C° 0 mm 4 mps 764 mmHg 72%

    20 June, Thursday

    Time Temperature Precipitation Wind Pressure Humidity
    00:00 +6°C° 0 mm 4 mps 764 mmHg 72%
    01:00 +6°C° 0 mm 4 mps 764 mmHg 73%
    02:00 +5°C° 0 mm 4 mps 764 mmHg 73%
    03:00 +5°C° 0 mm 4 mps 764 mmHg 73%
    04:00 +5°C° 0 mm 4 mps 764 mmHg 73%
    05:00 +5°C° 0 mm 4 mps 764 mmHg 73%
    06:00 +5°C° 0 mm 4 mps 764 mmHg 70%
    07:00 +5°C° 0 mm 4 mps 764 mmHg 67%
    08:00 +5°C° 0 mm 4 mps 764 mmHg 65%
    09:00 +8°C° 0 mm 4 mps 764 mmHg 58%
    10:00 +10°C° 0 mm 5 mps 764 mmHg 52%
    11:00 +13°C° 0 mm 5 mps 764 mmHg 45%
    12:00 +14°C° 0 mm 5 mps 763 mmHg 45%
    13:00 +15°C° 0 mm 5 mps 762 mmHg 45%
    14:00 +15°C° 0 mm 4 mps 762 mmHg 45%
    15:00 +14°C° 0 mm 5 mps 761 mmHg 49%
    16:00 +14°C° 0 mm 5 mps 761 mmHg 53%
    17:00 +13°C° 0 mm 5 mps 761 mmHg 57%
    18:00 +13°C° 0 mm 5 mps 761 mmHg 57%
    19:00 +11°C° 0 mm 6 mps 761 mmHg 58%
    20:00 +11°C° 0 mm 6 mps 761 mmHg 58%
    21:00 +11°C° 0 mm 6 mps 760 mmHg 56%
    22:00 +12°C° 0 mm 7 mps 760 mmHg 54%
    23:00 +12°C° 0 mm 7 mps 760 mmHg 52%

    21 June, Friday

    Time Temperature Precipitation Wind Pressure Humidity
    00:00 +11°C° 0 mm 6 mps 759 mmHg 54%
    01:00 +11°C° 0 mm 6 mps 759 mmHg 56%
    02:00 +11°C° 0 mm 6 mps 758 mmHg 58%
    03:00 +12°C° 0.1 mm 5 mps 758 mmHg 63%
    04:00 +12°C° 0.1 mm 5 mps 757 mmHg 68%
    05:00 +12°C° 0.1 mm 5 mps 757 mmHg 73%
    06:00 +11°C° 0.1 mm 4 mps 757 mmHg 75%
    07:00 +11°C° 0.1 mm 4 mps 757 mmHg 77%
    08:00 +11°C° 0.1 mm 4 mps 757 mmHg 79%
    09:00 +13°C° 0 mm 4 mps 756 mmHg 75%
    10:00 +15°C° 0 mm 4 mps 756 mmHg 71%
    11:00 +17°C° 0 mm 4 mps 756 mmHg 66%
    12:00 +18°C° 0 mm 4 mps 755 mmHg 65%
    13:00 +19°C° 0 mm 4 mps 755 mmHg 63%
    14:00 +20°C° 0 mm 3 mps 754 mmHg 61%
    15:00 +18°C° 0 mm 3 mps 754 mmHg 66%
    16:00 +17°C° 0 mm 3 mps 754 mmHg 71%
    17:00 +16°C° 0 mm 2 mps 754 mmHg 76%
    18:00 +14°C° 0 mm 3 mps 754 mmHg 80%
    19:00 +14°C° 0 mm 4 mps 754 mmHg 83%
    20:00 +13°C° 0 mm 4 mps 755 mmHg 86%
    21:00 +13°C° 0 mm 4 mps 755 mmHg 87%
    22:00 +13°C° 0 mm 4 mps 754 mmHg 89%
    23:00 +12°C° 0 mm 5 mps 754 mmHg 90%
    Show more